Weather History for Glencoe, MN

Change the Weather History Date:

Sunday, November 17, 2013

  Actual Average (KHCD) Record (KHCD)
Temperature  
Mean Temperature 38 °F -  
Max Temperature 43 °F 40 °F 69 °F (2001)
Min Temperature 32 °F 24 °F -4 °F (1959)
Degree Days  
Heating Degree Days 28    
Moisture  
Dew Point 33 °F    
Average Humidity 79    
Maximum Humidity 90    
Minimum Humidity 70    
Precipitation  
Precipitation 0.00 in - - ()
Sea Level Pressure  
Sea Level Pressure 29.51 in    
Wind  
Wind Speed 12 mph (West)    
Max Wind Speed 29 mph    
Max Gust Speed 41 mph    
Visibility 9 miles    
Events      
Averages and records for this station are not official NWS values.
T = Trace of Precipitation, MM = Missing Value Source: NWS Daily Summary

Daily Weather History Graph

Daily Weather History Graph

Search for Another Location

Airport:

Trip Planner

Search our weather history database for the weather conditions in past years. The results will help you decide how hot, cold, wet, or windy it might be!

Date:

Astronomy

Nov. 17, 2013 Rise Set
Actual Time 7:16 AM CST 4:45 PM CST
Civil Twilight 6:44 AM CST 5:17 PM CST
Nautical Twilight 6:08 AM CST 5:53 PM CST
Astronomical Twilight 5:34 AM CST 6:27 PM CST
Moon 5:03 PM CST (11/17) 7:10 AM CST (11/17)
Length of Visible Light 10h 33m
Length of Day
9h 29m
Full, 100% of the Moon is Illuminated
Nov 17
Full
Nov 25
Last Quarter
Dec 2
New
Dec 9
First Quarter
Dec 17
Full

Hourly Weather History & Observations

Time (CST) Temp. Windchill Dew Point Humidity Pressure Visibility Wind Dir Wind Speed Gust Speed Precip Events Conditions
12:13 AM 43.2 °F 39.7 °F 36.9 °F 78% 29.31 in 10.0 mi SW 5.8 mph - N/A   Clear
12:33 AM 43.0 °F 38.8 °F 36.5 °F 78% 29.31 in 10.0 mi SW 6.9 mph - N/A   Clear
12:53 AM 42.8 °F 38.0 °F 35.8 °F 76% 29.30 in 10.0 mi WSW 8.1 mph - N/A   Clear
1:13 AM 41.7 °F 38.0 °F 35.6 °F 79% 29.30 in 10.0 mi WSW 5.8 mph - N/A   Clear
1:33 AM 41.0 °F 38.0 °F 35.4 °F 81% 29.30 in 10.0 mi WSW 4.6 mph - N/A   Clear
1:53 AM 40.3 °F 36.3 °F 35.2 °F 82% 29.31 in 10.0 mi SSW 5.8 mph - N/A   Clear
2:13 AM 40.1 °F 36.9 °F 35.1 °F 82% 29.30 in 10.0 mi SW 4.6 mph - N/A   Clear
2:33 AM 38.8 °F - 34.0 °F 83% 29.30 in 10.0 mi Calm Calm - N/A   Scattered Clouds
2:53 AM 39.2 °F 35.9 °F 34.9 °F 84% 29.31 in 10.0 mi WSW 4.6 mph - N/A   Mostly Cloudy
3:13 AM 40.1 °F 36.9 °F 35.8 °F 85% 29.32 in 7.0 mi SSW 4.6 mph - N/A   Overcast
3:33 AM 40.8 °F 36.9 °F 36.9 °F 86% 29.32 in 7.0 mi SW 5.8 mph - N/A   Overcast
3:53 AM 41.0 °F 35.8 °F 37.4 °F 87% 29.33 in 4.0 mi SW 8.1 mph - N/A   Overcast
4:13 AM 41.0 °F 38.0 °F 37.4 °F 87% 29.35 in 3.0 mi SSW 4.6 mph - N/A   Overcast
4:33 AM 40.3 °F 36.3 °F 36.9 °F 88% 29.35 in 2.5 mi SSW 5.8 mph - N/A   Overcast
4:53 AM 39.6 °F 37.4 °F 36.5 °F 89% 29.34 in 4.0 mi SSW 3.5 mph - N/A   Overcast
5:13 AM 40.1 °F - 36.9 °F 88% 29.35 in 4.0 mi Calm Calm - N/A   Overcast
5:33 AM 41.0 °F 38.0 °F 38.3 °F 90% 29.34 in 3.0 mi WSW 4.6 mph - N/A   Overcast
5:53 AM 41.5 °F 38.6 °F 38.7 °F 89% 29.34 in 4.0 mi WSW 4.6 mph - N/A   Overcast
6:13 AM 41.9 °F 36.9 °F 38.7 °F 88% 29.34 in 5.0 mi West 8.1 mph - N/A   Overcast
6:33 AM 42.1 °F 36.1 °F 38.7 °F 88% 29.34 in 5.0 mi West 10.4 mph 16.1 mph N/A   Overcast
6:53 AM 41.9 °F 34.3 °F 38.3 °F 87% 29.33 in 7.0 mi WNW 15.0 mph - N/A   Overcast
7:13 AM 41.4 °F 33.6 °F 37.2 °F 85% 29.34 in 10.0 mi WNW 15.0 mph - N/A   Overcast
7:33 AM 41.0 °F 33.5 °F 36.3 °F 83% 29.36 in 10.0 mi WNW 13.8 mph - N/A   Mostly Cloudy
7:53 AM 40.5 °F 32.8 °F 35.6 °F 83% 29.36 in 10.0 mi WNW 13.8 mph 18.4 mph N/A   Mostly Cloudy
8:13 AM 40.3 °F 33.0 °F 35.4 °F 83% 29.37 in 10.0 mi WNW 12.7 mph 17.3 mph N/A   Overcast
8:33 AM 40.5 °F 34.1 °F 35.8 °F 83% 29.39 in 10.0 mi WNW 10.4 mph - N/A   Overcast
8:53 AM 40.5 °F 34.6 °F 35.8 °F 83% 29.39 in 10.0 mi WNW 9.2 mph - N/A   Overcast
9:13 AM 40.6 °F 33.8 °F 35.6 °F 82% 29.39 in 10.0 mi WNW 11.5 mph - N/A   Overcast
9:33 AM 40.6 °F 33.8 °F 35.6 °F 82% 29.40 in 10.0 mi WNW 11.5 mph - N/A   Overcast
9:53 AM 41.0 °F 33.5 °F 35.6 °F 81% 29.40 in 10.0 mi WNW 13.8 mph 18.4 mph N/A   Overcast
10:13 AM 41.0 °F 33.5 °F 35.8 °F 82% 29.41 in 10.0 mi WNW 13.8 mph - N/A   Overcast
10:33 AM 41.2 °F 34.1 °F 35.8 °F 81% 29.42 in 10.0 mi WNW 12.7 mph - N/A   Overcast
10:53 AM 41.7 °F 34.8 °F 36.0 °F 80% 29.43 in 10.0 mi WNW 12.7 mph 17.3 mph N/A   Overcast
11:13 AM 42.4 °F 35.3 °F 36.5 °F 79% 29.43 in 10.0 mi WNW 13.8 mph 19.6 mph N/A   Overcast
11:33 AM 42.8 °F 35.1 °F 36.5 °F 78% 29.44 in 10.0 mi WNW 16.1 mph - N/A   Overcast
11:53 AM 42.8 °F 34.8 °F 36.1 °F 77% 29.44 in 10.0 mi WNW 17.3 mph - N/A   Overcast
12:13 PM 43.2 °F 35.6 °F 36.5 °F 77% 29.44 in 10.0 mi WNW 16.1 mph - N/A   Overcast
12:33 PM 42.8 °F 33.5 °F 35.4 °F 75% 29.45 in 10.0 mi WNW 23.0 mph 26.5 mph N/A   Overcast
12:53 PM 42.8 °F 34.0 °F 34.7 °F 73% 29.46 in 10.0 mi WNW 20.7 mph 32.2 mph N/A   Overcast
1:13 PM 42.4 °F 34.1 °F 35.6 °F 77% 29.47 in 10.0 mi WNW 18.4 mph 27.6 mph N/A   Overcast
1:33 PM 42.3 °F 31.9 °F 34.7 °F 75% 29.48 in 10.0 mi WNW 27.6 mph 33.4 mph N/A   Overcast
1:53 PM 42.3 °F 34.1 °F 34.5 °F 74% 29.49 in 10.0 mi West 17.3 mph 27.6 mph N/A   Overcast
2:13 PM 42.4 °F 34.1 °F 34.7 °F 74% 29.50 in 10.0 mi WNW 18.4 mph 28.8 mph N/A   Overcast
2:33 PM 43.0 °F 33.8 °F 33.6 °F 70% 29.51 in 10.0 mi WNW 23.0 mph 33.4 mph N/A   Mostly Cloudy
2:53 PM 42.1 °F 32.1 °F 33.6 °F 72% 29.52 in 10.0 mi WNW 25.3 mph 31.1 mph N/A   Scattered Clouds
3:13 PM 41.0 °F 31.6 °F 33.3 °F 74% 29.55 in 10.0 mi WNW 20.7 mph 31.1 mph N/A   Scattered Clouds
3:33 PM 40.1 °F 29.7 °F 32.9 °F 75% 29.56 in 10.0 mi WNW 24.2 mph 31.1 mph N/A   Scattered Clouds
3:53 PM 39.4 °F 29.2 °F 32.2 °F 75% 29.58 in 10.0 mi West 21.9 mph 25.3 mph N/A   Mostly Cloudy
4:14 PM 38.5 °F 28.9 °F 31.6 °F 76% 29.59 in 10.0 mi WNW 18.4 mph 31.1 mph N/A   Scattered Clouds
4:33 PM 38.5 °F 28.9 °F 32.0 °F 78% 29.61 in 10.0 mi West 18.4 mph 21.9 mph N/A   Mostly Cloudy
4:53 PM 38.1 °F 26.6 °F 30.9 °F 75% 29.63 in 10.0 mi WNW 26.5 mph 41.4 mph N/A   Overcast
5:13 PM 37.4 °F 26.6 °F 30.6 °F 76% 29.65 in 10.0 mi West 21.9 mph 35.7 mph N/A   Overcast
5:33 PM 36.7 °F 27.2 °F 30.6 °F 78% 29.66 in 10.0 mi WNW 16.1 mph 27.6 mph N/A   Overcast
5:53 PM 36.5 °F 25.4 °F 29.7 °F 76% 29.68 in 10.0 mi WNW 21.9 mph 27.6 mph N/A   Mostly Cloudy
6:13 PM 36.3 °F 25.8 °F 29.3 °F 76% 29.70 in 10.0 mi WNW 19.6 mph 32.2 mph N/A   Mostly Cloudy
6:33 PM 36.1 °F 24.7 °F 29.3 °F 76% 29.72 in 10.0 mi West 23.0 mph 27.6 mph N/A   Overcast
6:53 PM 36.0 °F 23.2 °F 28.0 °F 73% 29.73 in 10.0 mi WNW 28.8 mph 39.1 mph N/A   Overcast
7:13 PM 35.4 °F 23.7 °F 27.5 °F 73% 29.73 in 10.0 mi WNW 23.0 mph 35.7 mph N/A   Overcast
7:33 PM 34.7 °F 21.8 °F 27.0 °F 73% 29.75 in 10.0 mi West 27.6 mph 33.4 mph N/A   Overcast
7:53 PM 34.0 °F 22.4 °F 26.6 °F 74% 29.75 in 10.0 mi WNW 20.7 mph 32.2 mph N/A   Overcast
8:13 PM 34.0 °F 22.1 °F 26.6 °F 74% 29.77 in 10.0 mi WNW 21.9 mph 31.1 mph N/A   Overcast
8:33 PM 34.0 °F 22.7 °F 26.4 °F 74% 29.77 in 10.0 mi WNW 19.6 mph 28.8 mph N/A   Overcast
8:53 PM 34.0 °F 23.4 °F 26.6 °F 74% 29.78 in 10.0 mi WNW 17.3 mph 29.9 mph N/A   Overcast
9:13 PM 33.8 °F 23.2 °F 26.6 °F 75% 29.79 in 10.0 mi WNW 17.3 mph - N/A   Overcast
9:33 PM 33.8 °F 20.8 °F 25.7 °F 72% 29.79 in 10.0 mi WNW 26.5 mph 32.2 mph N/A   Overcast
9:53 PM 33.4 °F 21.7 °F 25.7 °F 73% 29.80 in 10.0 mi WNW 20.7 mph 29.9 mph N/A   Overcast
10:13 PM 33.4 °F 22.3 °F 25.9 °F 74% 29.82 in 10.0 mi WNW 18.4 mph 26.5 mph N/A   Overcast
10:33 PM 32.7 °F 19.6 °F 25.2 °F 74% 29.83 in 10.0 mi WNW 25.3 mph 29.9 mph N/A   Overcast
10:53 PM 32.0 °F 20.8 °F 24.6 °F 74% 29.84 in 10.0 mi West 17.3 mph 26.5 mph N/A   Overcast
11:13 PM 32.0 °F 21.2 °F 24.4 °F 74% 29.84 in 10.0 mi WNW 16.1 mph - N/A   Overcast
11:33 PM 32.0 °F 18.6 °F 24.1 °F 73% 29.85 in 10.0 mi WNW 25.3 mph 32.2 mph N/A   Overcast
11:53 PM 32.0 °F 20.1 °F 23.7 °F 71% 29.85 in 10.0 mi WNW 19.6 mph 24.2 mph N/A   Overcast